Location: Asheville, NC
(35.6000°N, 82.5500°W)
Time: 09:29:29

nSIGHT-1 - Pass Details

Date: 14 March 2018
Orbit: 384 x 391 km, 51.6° (Epoch: 20 March)

Event Time Altitude Azimuth Distance (km) Brightness Sun altitude
Exits shadow 06:38:27 - 331° (NNW) 1,931 ? -13.8°
Reaches altitude 10° 06:40:07 10° 348° (NNW) 1,420 ? -13.5°
Maximum altitude 06:42:10 16° 29° (NNE) 1,119 ? -13.1°
Drops below altitude 10° 06:44:13 10° 69° (ENE) 1,414 ? -12.6°
Sets 06:46:50 0° 93° (E) 2,264 ? -12.1°
